When you browse on this site, cookies collect data to enhance your experience and personalize the content and advertising you see.
Visit our Privacy Policy to learn more. By continuing to use the site, you agree to this use of cookies and data.
  • In Hungary
  • List of Countries
  • For 7 days
  • Water Temperature
  • Satellite Maps
  • Weather Map
  • News
  • Weather Widgets
  • user-avatar
    Login

    Hourly Weather Ningyang

    Today, 21 April, Sunday

    Time Temperature Precipitation Wind Pressure Humidity
    00:00 +18°C° 0 mm 1 mps 752 mmHg 56%
    01:00 +18°C° 0 mm 1 mps 752 mmHg 58%
    02:00 +18°C° 0 mm 1 mps 752 mmHg 61%
    03:00 +17°C° 0 mm 2 mps 752 mmHg 59%
    04:00 +17°C° 0 mm 2 mps 752 mmHg 58%
    05:00 +17°C° 0 mm 2 mps 752 mmHg 56%
    06:00 +17°C° 0 mm 2 mps 753 mmHg 54%
    07:00 +18°C° 0 mm 2 mps 753 mmHg 51%
    08:00 +19°C° 0 mm 3 mps 754 mmHg 49%
    09:00 +21°C° 0 mm 3 mps 754 mmHg 48%
    10:00 +24°C° 0 mm 3 mps 754 mmHg 48%
    11:00 +25°C° 0 mm 3 mps 754 mmHg 47%
    12:00 +25°C° 0 mm 3 mps 754 mmHg 50%
    13:00 +25°C° 0 mm 3 mps 754 mmHg 52%
    14:00 +25°C° 0 mm 3 mps 754 mmHg 55%
    15:00 +24°C° 0.1 mm 3 mps 753 mmHg 62%
    16:00 +22°C° 0.1 mm 3 mps 753 mmHg 68%
    17:00 +21°C° 0.1 mm 3 mps 753 mmHg 75%
    18:00 +20°C° 0 mm 2 mps 753 mmHg 80%
    19:00 +18°C° 0 mm 2 mps 753 mmHg 85%
    20:00 +17°C° 0 mm 2 mps 754 mmHg 90%
    21:00 +17°C° 0 mm 2 mps 754 mmHg 91%
    22:00 +17°C° 0 mm 2 mps 754 mmHg 92%
    23:00 +16°C° 0 mm 2 mps 755 mmHg 92%

    Tomorrow, 22 April, Monday

    Time Temperature Precipitation Wind Pressure Humidity
    00:00 +16°C° 0 mm 2 mps 755 mmHg 93%
    01:00 +15°C° 0 mm 2 mps 755 mmHg 94%
    02:00 +15°C° 0 mm 2 mps 755 mmHg 95%
    03:00 +15°C° 0 mm 2 mps 755 mmHg 94%
    04:00 +14°C° 0 mm 2 mps 754 mmHg 94%
    05:00 +14°C° 0 mm 1 mps 754 mmHg 94%
    06:00 +15°C° 0 mm 2 mps 754 mmHg 87%
    07:00 +17°C° 0 mm 2 mps 755 mmHg 80%
    08:00 +18°C° 0 mm 2 mps 755 mmHg 72%
    09:00 +20°C° 0 mm 2 mps 755 mmHg 66%
    10:00 +22°C° 0 mm 3 mps 755 mmHg 59%
    11:00 +25°C° 0 mm 3 mps 755 mmHg 52%
    12:00 +25°C° 0 mm 3 mps 754 mmHg 53%
    13:00 +25°C° 0 mm 3 mps 754 mmHg 54%
    14:00 +26°C° 0 mm 3 mps 754 mmHg 55%
    15:00 +25°C° 0.1 mm 3 mps 753 mmHg 59%
    16:00 +23°C° 0.1 mm 4 mps 753 mmHg 63%
    17:00 +23°C° 0.1 mm 4 mps 752 mmHg 67%
    18:00 +21°C° 0 mm 3 mps 752 mmHg 72%
    19:00 +20°C° 0 mm 3 mps 753 mmHg 77%
    20:00 +18°C° 0 mm 3 mps 753 mmHg 83%
    21:00 +18°C° 0 mm 2 mps 753 mmHg 84%
    22:00 +17°C° 0 mm 2 mps 753 mmHg 86%
    23:00 +17°C° 0 mm 2 mps 753 mmHg 87%

    Day after tomorrow, 23 April, Tuesday

    Time Temperature Precipitation Wind Pressure Humidity
    00:00 +17°C° 0 mm 2 mps 753 mmHg 88%
    01:00 +16°C° 0 mm 1 mps 753 mmHg 89%
    02:00 +16°C° 0 mm 1 mps 752 mmHg 90%
    03:00 +16°C° 0 mm 1 mps 752 mmHg 92%
    04:00 +15°C° 0 mm 1 mps 752 mmHg 93%
    05:00 +15°C° 0 mm 1 mps 752 mmHg 94%
    06:00 +16°C° 0 mm 1 mps 752 mmHg 90%
    07:00 +18°C° 0 mm 1 mps 752 mmHg 86%
    08:00 +19°C° 0 mm 1 mps 752 mmHg 82%
    09:00 +21°C° 0 mm 1 mps 752 mmHg 76%
    10:00 +22°C° 0 mm 1 mps 752 mmHg 70%
    11:00 +24°C° 0 mm 2 mps 752 mmHg 64%
    12:00 +24°C° 0 mm 1 mps 752 mmHg 62%
    13:00 +25°C° 0 mm 1 mps 751 mmHg 59%
    14:00 +26°C° 0 mm 1 mps 750 mmHg 57%
    15:00 +26°C° 0 mm 1 mps 750 mmHg 57%
    16:00 +26°C° 0 mm 1 mps 750 mmHg 57%
    17:00 +26°C° 0 mm 1 mps 750 mmHg 57%
    18:00 +24°C° 0 mm 1 mps 750 mmHg 61%
    19:00 +23°C° 0 mm 1 mps 750 mmHg 66%
    20:00 +22°C° 0 mm 1 mps 750 mmHg 71%
    21:00 +21°C° 0 mm 1 mps 750 mmHg 74%
    22:00 +21°C° 0 mm 1 mps 751 mmHg 76%
    23:00 +20°C° 0 mm 1 mps 751 mmHg 79%

    24 April, Wednesday

    Time Temperature Precipitation Wind Pressure Humidity
    00:00 +20°C° 0 mm 1 mps 751 mmHg 82%
    01:00 +19°C° 0 mm 1 mps 751 mmHg 84%
    02:00 +19°C° 0 mm 1 mps 751 mmHg 87%
    03:00 +18°C° 0 mm 1 mps 751 mmHg 88%
    04:00 +18°C° 0 mm 1 mps 751 mmHg 90%
    05:00 +18°C° 0 mm 1 mps 751 mmHg 92%
    06:00 +19°C° 0 mm 1 mps 751 mmHg 86%
    07:00 +20°C° 0 mm 1 mps 751 mmHg 81%
    08:00 +22°C° 0 mm 1 mps 752 mmHg 76%
    09:00 +24°C° 0 mm 1 mps 752 mmHg 69%
    10:00 +26°C° 0 mm 1 mps 752 mmHg 62%
    11:00 +28°C° 0 mm 1 mps 752 mmHg 55%
    12:00 +28°C° 0 mm 1 mps 752 mmHg 53%
    13:00 +28°C° 0 mm 1 mps 751 mmHg 51%
    14:00 +29°C° 0 mm 2 mps 750 mmHg 49%
    15:00 +28°C° 0 mm 2 mps 750 mmHg 51%
    16:00 +28°C° 0 mm 2 mps 750 mmHg 54%
    17:00 +27°C° 0 mm 2 mps 750 mmHg 56%
    18:00 +26°C° 0 mm 3 mps 750 mmHg 60%
    19:00 +25°C° 0 mm 3 mps 750 mmHg 64%
    20:00 +23°C° 0 mm 4 mps 751 mmHg 68%
    21:00 +22°C° 0 mm 4 mps 751 mmHg 71%
    22:00 +21°C° 0 mm 4 mps 751 mmHg 74%
    23:00 +20°C° 0 mm 4 mps 751 mmHg 77%

    25 April, Thursday

    Time Temperature Precipitation Wind Pressure Humidity
    00:00 +19°C° 0.3 mm 4 mps 751 mmHg 78%
    01:00 +16°C° 0.3 mm 5 mps 752 mmHg 79%
    02:00 +15°C° 0.3 mm 5 mps 752 mmHg 80%
    03:00 +15°C° 0.4 mm 4 mps 752 mmHg 80%
    04:00 +16°C° 0.4 mm 3 mps 752 mmHg 81%
    05:00 +16°C° 0.4 mm 2 mps 752 mmHg 82%
    06:00 +15°C° 0.2 mm 2 mps 753 mmHg 82%
    07:00 +14°C° 0.2 mm 3 mps 753 mmHg 82%
    08:00 +14°C° 0.2 mm 3 mps 753 mmHg 82%
    09:00 +17°C° 0.1 mm 3 mps 753 mmHg 76%
    10:00 +19°C° 0.1 mm 2 mps 753 mmHg 70%
    11:00 +20°C° 0.1 mm 2 mps 753 mmHg 64%
    12:00 +21°C° 0 mm 2 mps 753 mmHg 61%
    13:00 +23°C° 0 mm 2 mps 752 mmHg 58%
    14:00 +24°C° 0 mm 2 mps 752 mmHg 55%
    15:00 +22°C° 0.2 mm 3 mps 752 mmHg 60%
    16:00 +21°C° 0.2 mm 3 mps 752 mmHg 64%
    17:00 +20°C° 0.2 mm 4 mps 752 mmHg 69%
    18:00 +18°C° 0.4 mm 4 mps 752 mmHg 73%
    19:00 +17°C° 0.4 mm 4 mps 753 mmHg 76%
    20:00 +15°C° 0.4 mm 5 mps 753 mmHg 80%
    21:00 +15°C° 0.3 mm 4 mps 754 mmHg 81%
    22:00 +14°C° 0.3 mm 4 mps 754 mmHg 82%
    23:00 +14°C° 0.3 mm 3 mps 754 mmHg 84%

    26 April, Friday

    Time Temperature Precipitation Wind Pressure Humidity
    00:00 +13°C° 0.1 mm 3 mps 754 mmHg 82%
    01:00 +14°C° 0.1 mm 2 mps 754 mmHg 80%
    02:00 +14°C° 0.1 mm 2 mps 754 mmHg 78%
    03:00 +13°C° 0 mm 2 mps 755 mmHg 76%
    04:00 +12°C° 0 mm 2 mps 755 mmHg 74%
    05:00 +10°C° 0 mm 3 mps 756 mmHg 72%
    06:00 +12°C° 0 mm 3 mps 756 mmHg 62%
    07:00 +13°C° 0 mm 4 mps 757 mmHg 51%
    08:00 +14°C° 0 mm 5 mps 757 mmHg 41%
    09:00 +16°C° 0 mm 5 mps 758 mmHg 37%
    10:00 +19°C° 0 mm 4 mps 758 mmHg 33%
    11:00 +21°C° 0 mm 4 mps 758 mmHg 29%
    12:00 +21°C° 0 mm 4 mps 758 mmHg 30%
    13:00 +22°C° 0 mm 4 mps 758 mmHg 30%
    14:00 +23°C° 0 mm 4 mps 757 mmHg 31%
    15:00 +23°C° 0 mm 4 mps 757 mmHg 32%
    16:00 +22°C° 0 mm 3 mps 758 mmHg 33%
    17:00 +22°C° 0 mm 3 mps 758 mmHg 34%
    18:00 +20°C° 0 mm 3 mps 758 mmHg 38%
    19:00 +18°C° 0 mm 3 mps 758 mmHg 42%
    20:00 +17°C° 0 mm 3 mps 759 mmHg 46%
    21:00 +14°C° 0 mm 3 mps 759 mmHg 44%
    22:00 +13°C° 0 mm 3 mps 759 mmHg 43%
    23:00 +12°C° 0 mm 3 mps 760 mmHg 42%
    Show more